Location: Dine Sky Observatory
(36.3696°N, 109.6234°W)
Time: 12:50:11
(UTC-07:00)

Hubble Space Telescope - Visible Passes

Search period start: 23 January 2018 00:00
Search period end: 02 February 2018 00:00
Orbit: 537 x 541 km, 28.5° (Epoch: 23 January)

Date Brightness Start Highest point End Pass type
(mag) Time Alt. Az. Time Alt. Az. Time Alt. Az.
23 Jan 3.1 18:29:49 10° S 18:31:34 12° SSE 18:33:18 10° SE visible
23 Jan 3.4 20:08:49 10° SW 20:09:42 14° SW 20:09:42 14° SW visible
24 Jan 3.0 18:18:51 10° SSW 18:21:12 15° SSE 18:23:32 10° SE visible
24 Jan 3.0 19:58:24 10° SW 20:00:05 19° SSW 20:00:05 19° SSW visible
25 Jan 2.9 18:08:06 10° SSW 18:10:49 17° SSE 18:13:33 10° ESE visible
25 Jan 2.6 19:48:01 10° SW 19:50:29 24° SSW 19:50:29 24° SSW visible
26 Jan 2.3 19:37:40 10° WSW 19:40:52 27° S 19:40:52 27° S visible
27 Jan 2.2 19:27:22 10° WSW 19:30:51 27° S 19:31:17 26° S visible
28 Jan 2.3 19:17:04 10° WSW 19:20:31 26° S 19:21:43 22° SSE visible
29 Jan 2.5 19:06:48 10° WSW 19:10:11 24° S 19:12:12 17° SSE visible
30 Jan 2.7 18:56:35 10° WSW 18:59:50 23° S 19:02:45 12° SE visible
31 Jan 2.9 18:46:24 10° WSW 18:49:30 21° SSW 18:52:35 10° SE visible
01 Feb 3.1 18:36:16 10° WSW 18:39:08 18° SSW 18:42:00 10° SSE visible
